User: anonymous   Login
Location: Mentone
(34.5413°N, 85.5351°W)
Time: 06:22:28
(UTC-06:00)
Language:

AO-Echo - Orbit

View from above orbital plane
View from above orbital plane
View from above satellite
View from above satellite

Ground track
Ground track

The orbit data is extracted from the following two-line orbital elements,

1 28375U 04025K   16038.37698043  .00000149  00000-0  57170-4 0  9992
2 28375  98.3178 337.3637 0082309 340.2577  19.5432 14.41749070610373
Epoch (UTC): 07 February 2016 09:02:51
Eccentricity: 0.0082309
inclination: 98.3178°
perigee height: 694 km
apogee height: 811 km
right ascension of ascending node: 337.3637°
argument of perigee: 340.2577°
revolutions per day: 14.41749070
mean anomaly at epoch: 19.5432°
orbit number at epoch: 61037

The dashed part of the orbit path shows where the satellite is in the earth's shadow,  

DLR